FLOCK 2K-32 (42870 NORAD) Tracking and Keplerian Element Data

This shows tracking and keplerian element data for the satellite.

Feedback or suggestion? Click here.




ElementValue
Catalog42870
NameFLOCK 2K-32
Epoch Orbit3291
Epoch Day46.22107546
Epoch Year2018
RAAN308.996
Inclination96.9924
Eccentricity0.0010628
Argument of Perigee181.8494
Mean Anonmoly178.2713
Mean Motion15.35682266
Decay Rate9.186E-05
L11 42870U 17042AX 18046.22107546 .00009186 00000-0 26639-3 0 9994
L22 42870 96.9924 308.9960 0010628 181.8494 178.2713 15.35682266 32917

Live tracking and technical data element details for FLOCK 2K-32 (NORAD 42870). FLOCK 2K-32 can be tracked NOW for your location showing map with azimuth and elevation plus other details from your city location.

Track the satellite on the map from your city or location and see movement details for azimuth, elevation, latitude, longitude, range, height, and movement on the map or in text.







IsCatalogInMostPopularTable: catalog: 42870, numindb: 79
Update: records affected: 1



GetName: 42870 FLOCK 2K-32

Hit Count: updated at: Sat, 21 Jul 2018 08:04:37 GMT